Voltar ao catálogo

STARLINK-32143

AtivoComunicaçõesVLEO
NORAD 60296·PAYLOAD·🇺🇸 United States

Lançado Jul 28, 2024 de Cape Canaveral Space Force Station

Loading…

Próximas Passagens (próximas 24 horas)

TLE

AtualizadoSource: CelesTrak SupGP

Época: Sep 15, 2026, 02:33 UTC

1 60296C 24132U   26258.10673611 -.00025789  00000+0 -82919-3 0  2585
2 60296  53.1570 251.3451 0001201  95.4554  91.9050 15.31719224    13

Acompanhe STARLINK-32143 em tempo real com AllMySat

Download on the App Store